This is the latest recevied weather packets stored in our database for station/object KM8V-8. If no packets are shown the sender has not sent any weather packets the latest 10 day(s).
| Time | Temp. | Humidity | Pressure | Rain* | Wind** | Luminosity | Snow |
|---|---|---|---|---|---|---|---|
| 1777749622 | 8.89° C | 54% | 1016.4 hPa | 0 mm | - | 635 W/m² | - |
| 1777749322 | 8.33° C | 58% | 1016.4 hPa | 0 mm | - | 894 W/m² | - |
| 1777749023 | 7.78° C | 57% | 1016.4 hPa | 0 mm | - | 660 W/m² | - |
| 1777748722 | 7.78° C | 55% | 1016.5 hPa | 0 mm | - | 642 W/m² | - |
| 1777748123 | 7.78° C | 56% | 1016.5 hPa | 0 mm | - | 558 W/m² | - |
| 1777747823 | 7.78° C | 53% | 1016.6 hPa | 0 mm | - | 772 W/m² | - |
| 1777747523 | 8.33° C | 54% | 1016.6 hPa | 0 mm | - | 721 W/m² | - |
| 1777747217 | 8.33° C | 56% | 1016.7 hPa | 0 mm | - | 966 W/m² | - |
| 1777746917 | 7.78° C | 56% | 1016.6 hPa | 0 mm | - | 944 W/m² | - |
| 1777746617 | 7.78° C | 58% | 1016.7 hPa | 0 mm | - | 921 W/m² | - |
| 1777746317 | 7.78° C | 58% | 1016.6 hPa | 0 mm | - | 914 W/m² | - |
| 1777746017 | 7.78° C | 59% | 1016.6 hPa | 0 mm | - | 937 W/m² | - |
| 1777745723 | 7.78° C | 57% | 1016.7 hPa | 0 mm | - | 565 W/m² | - |
| 1777745423 | 7.78° C | 58% | 1016.8 hPa | 0 mm | - | 934 W/m² | - |
| 1777745123 | 7.78° C | 60% | 1016.8 hPa | 0 mm | - | 892 W/m² | - |
| 1777744823 | 7.22° C | 59% | 1016.9 hPa | 0 mm | - | 824 W/m² | - |
| 1777744523 | 7.78° C | 59% | 1016.9 hPa | 0 mm | - | 967 W/m² | - |
| 1777744224 | 7.22° C | 60% | 1017 hPa | 0 mm | - | 979 W/m² | - |
| 1777743919 | 7.22° C | 59% | 1017 hPa | 0 mm | - | 781 W/m² | - |
| 1777743618 | 7.22° C | 61% | 1017 hPa | 0 mm | - | 746 W/m² | - |
| 1777743317 | 7.22° C | 60% | 1017 hPa | 0 mm | - | 1007 W/m² | - |
| 1777743024 | 7.22° C | 62% | 1017.1 hPa | 0 mm | - | 1029 W/m² | - |
| 1777742724 | 7.22° C | 63% | 1017.1 hPa | 0 mm | - | 820 W/m² | - |
| 1777742425 | 7.22° C | 65% | 1017.2 hPa | 0 mm | - | 767 W/m² | - |
| 1777742124 | 7.22° C | 63% | 1017.1 hPa | 0 mm | - | 697 W/m² | - |
* Rain latest hour (hover to see other rain measurements)
** Current wind speed in m/s (hover to see current wind gust speed)